EW6426 Weather Reports


time (UTC)temp
C
wind
direction
speed
KPH
gust
KPH
rain 1hr
cm
rain 24hr
cm
rain mn
cm
humidity
%
barometer
mb
20260507093034 0 202 0.0 0.0 0.00 0.00 0.00 71 1011.6
20260507091541 0 207 0.0 0.0 0.00 0.00 0.00 70 1011.8
20260507090036 0 194 0.0 0.0 0.00 0.00 0.00 69 1011.9
20260507084529 0 183 0.0 0.0 0.00 0.00 0.00 68 1011.8
20260507083032 0 182 0.0 0.0 0.00 0.00 0.00 67 1011.8
20260507081525 1 178 0.0 0.0 0.00 0.00 0.00 65 1011.9
20260507080023 1 200 0.0 0.0 0.00 0.00 0.00 64 1012.0
20260507074518 1 186 0.0 0.0 0.00 0.00 0.00 62 1012.1
20260507073015 2 189 0.0 0.0 0.00 0.00 0.00 61 1012.2
20260507071512 2 188 0.0 0.0 0.00 0.00 0.00 59 1012.3
20260507070013 2 206 0.0 0.0 0.00 0.00 0.00 60 1012.4
20260507064509 2 171 0.0 0.0 0.00 0.00 0.00 61 1012.4
20260507063007 2 173 0.0 0.0 0.00 0.00 0.00 61 1012.5
20260507061507 2 163 0.0 0.0 0.00 0.00 0.00 60 1012.7
20260507060006 2 189 0.0 0.0 0.00 0.00 0.00 61 1012.6
20260507054515 2 146 0.0 0.0 0.00 0.00 0.00 61 1012.5
20260507053004 2 148 0.0 0.0 0.00 0.00 0.00 62 1012.5
20260507051501 3 175 0.0 0.0 0.00 0.00 0.00 60 1012.5
20260507050058 3 162 0.0 0.0 0.00 0.00 0.00 60 1012.8
20260507044558 3 151 0.0 0.0 0.00 0.00 0.00 58 1013.0
20260507043056 4 148 0.0 0.0 0.00 0.00 0.00 57 1012.9
20260507041555 5 146 0.0 0.0 0.00 0.00 0.00 55 1013.2
20260507040056 5 138 0.0 0.0 0.00 0.00 0.00 54 1013.3
20260507034557 5 144 0.0 0.0 0.00 0.00 0.00 53 1013.3
20260507033056 6 140 0.0 0.0 0.00 0.00 0.00 52 1013.3
20260507031552 6 147 0.0 0.0 0.00 0.00 0.00 51 1013.3
20260507030052 6 135 0.0 0.0 0.00 0.00 0.00 49 1013.5
20260507024604 7 130 0.0 0.0 0.00 0.00 0.00 47 1013.5
20260507023051 7 112 0.0 0.0 0.00 0.00 0.00 44 1013.4
20260507021552 7 91 0.0 0.0 0.00 0.00 0.00 42 1013.4
20260507020107 8 101 0.0 0.0 0.00 0.00 0.00 41 1013.4
20260507014553 8 72 0.0 0.0 0.00 0.00 0.00 40 1013.3
20260507013054 8 72 0.0 0.0 0.00 0.00 0.00 39 1013.4
20260507011547 9 44 0.0 0.0 0.00 0.00 0.00 38 1013.3
20260507010048 9 44 0.0 0.0 0.00 0.00 0.00 37 1013.4
20260507004553 10 49 0.0 0.0 0.00 0.00 0.00 35 1013.5
20260507003048 10 347 0.0 0.0 0.00 0.00 0.00 33 1013.6
20260507001545 10 315 0.0 0.0 0.00 0.00 0.00 34 1013.7
20260507000039 10 340 0.0 0.0 0.00 0.00 0.00 33 1013.9
20260506234543 11 5 0.0 0.0 0.00 0.00 0.00 33 1014.0
20260506233035 11 305 0.0 0.0 0.00 0.00 0.00 33 1014.1
20260506231535 11 348 0.0 0.0 0.00 0.00 0.00 33 1014.3
20260506230042 10 316 0.0 0.0 0.00 0.00 0.00 34 1014.3
20260506224534 10 339 0.0 0.0 0.00 0.00 0.00 34 1014.4
20260506223041 10 42 0.0 0.0 0.00 0.00 0.00 37 1014.5
20260506221529 10 16 0.0 0.0 0.00 0.00 0.00 34 1014.7
20260506220027 10 139 0.0 0.0 0.00 0.00 0.00 35 1014.8
20260506214536 9 311 0.0 0.0 0.00 0.00 0.00 36 1015.1
20260506213021 9 273 0.0 0.0 0.00 0.00 0.00 37 1015.3
20260506211520 9 340 0.0 0.0 0.00 0.00 0.00 37 1015.5
20260506210020 9 346 0.0 0.0 0.00 0.00 0.00 37 1015.7
20260506204518 9 308 0.0 0.0 0.00 0.00 0.00 37 1015.8
20260506203018 9 313 0.0 0.0 0.00 0.00 0.00 39 1016.0
20260506201513 10 17 0.0 0.0 0.00 0.00 0.00 37 1016.2
20260506200011 8 335 0.0 0.0 0.00 0.00 0.00 39 1016.5
20260506194509 9 342 0.0 0.0 0.00 0.00 0.00 38 1016.5
20260506193005 8 312 0.0 0.0 0.00 0.00 0.00 39 1016.8
20260506191504 8 314 0.0 0.0 0.00 0.00 0.00 40 1017.0
20260506190006 8 325 0.0 0.0 0.00 0.00 0.00 40 1017.1
20260506184606 8 28 0.0 0.0 0.00 0.00 0.00 41 1017.2
20260506183104 7 306 0.0 0.0 0.00 0.00 0.00 41 1017.3
20260506181621 7 315 0.0 0.0 0.00 0.00 0.00 41 1017.5
20260506180054 7 325 0.0 0.0 0.00 0.00 0.00 42 1017.8
20260506174552 7 331 0.0 0.0 0.00 0.00 0.00 44 1017.9
20260506173059 6 320 0.0 0.0 0.00 0.00 0.00 44 1018.1
20260506171550 7 317 0.0 0.0 0.00 0.00 0.00 44 1018.3
20260506170050 7 325 0.0 0.0 0.00 0.00 0.00 45 1018.5
20260506164548 6 17 0.0 0.0 0.00 0.00 0.00 46 1018.5
20260506163045 6 5 0.0 0.0 0.00 0.00 0.00 46 1018.7
20260506161546 6 296 0.0 0.0 0.00 0.00 0.00 47 1018.7
20260506160051 5 288 0.0 0.0 0.00 0.00 0.00 47 1018.7
20260506154540 5 38 0.0 0.0 0.00 0.00 0.00 47 1018.8
20260506153054 5 22 0.0 0.0 0.00 0.00 0.00 51 1018.8
20260506151539 5 12 0.0 0.0 0.00 0.00 0.00 51 1019.0
20260506150034 4 336 0.0 0.0 0.00 0.00 0.00 54 1019.1
20260506144529 3 9 0.0 0.0 0.00 0.00 0.00 55 1019.1
20260506143031 3 31 0.0 0.0 0.00 0.00 0.00 58 1019.2
20260506141522 2 22 0.0 0.0 0.00 0.00 0.00 63 1019.1
20260506140018 2 44 0.0 0.0 0.00 0.00 0.00 70 1019.2
20260506134515 1 46 0.0 0.0 0.00 0.00 0.00 74 1019.2
20260506133010 0 46 0.0 0.0 0.00 0.00 0.00 74 1019.2
20260506131507 0 46 0.0 0.0 0.00 0.00 0.00 75 1019.1
20260506130007 0 46 0.0 0.0 0.00 0.00 0.00 75 1019.1
20260506124504 0 46 0.0 0.0 0.00 0.00 0.00 75 1018.9
20260506123002 0 46 0.0 0.0 0.00 0.00 0.00 78 1018.7
20260506121501 0 46 0.0 0.0 0.00 0.00 0.00 79 1018.6
20260506120058 -1 46 0.0 0.0 0.00 0.00 0.00 80 1018.4
20260506114604 -1 46 0.0 0.0 0.00 0.00 0.00 81 1018.3
20260506113057 -1 46 0.0 0.0 0.00 0.00 0.00 80 1018.3
20260506111555 -1 46 0.0 0.0 0.00 0.00 0.00 79 1018.2
20260506110055 0 46 0.0 0.0 0.00 0.00 0.00 78 1018.2
20260506104559 0 46 0.0 0.0 0.00 0.00 0.00 77 1018.1
20260506103055 0 46 0.0 0.0 0.00 0.00 0.00 77 1018.2
20260506101553 0 46 0.0 0.0 0.00 0.00 0.00 77 1018.1
20260506100050 0 46 0.0 0.0 0.00 0.00 0.00 77 1018.2
20260506094549 0 45 0.0 0.0 0.00 0.00 0.00 76 1018.2